RADUGA-1 6 [-]

Last updated on Jan. 23, 2021, 7:21 a.m. UTC

1 26936U 01045A   21022.50562611 -.00000033  00000-0  00000-0 0  9996
2 26936  12.8098  28.3502 0012463 154.1853 200.0166  0.97743083 69325
UTC
Height (km)
Latitude
Longitude
Inclination
Orbital Period
UTC large
Height (km)
Speed (km/s)
/
Latitude / Longitude
Inclination (degrees)
Orbital Period (minutes)
Azimuth
Elevation
Range (km)
Doppler Factor
iOS Compass Heading
iOS Angle

Next 30 passes for location: Hong Kong

Rise time Rise Azimuth (degrees) Set time Set Azimuth (degrees) Duration Max altitude (degrees)

No matching passes for this satellites